[[{"header":{"parameterUnit":"m.s-1","parameterCategory":1,"la1":30.2991,"la2":30.254,"lo1":-89.0895,"lo2":-89.0444,"dy":0.0017,"dx":0.0017,"nx":28,"ny":28,"refTime":"2024-05-10T03:00:00:Z","depth":0,"parameterNumber":2,"parameterNumberName":"U-component_of_WINDS"},"data":[0,0,0,0,0,0,0,0,0,0,0,0,0,0,0,0,0,0,0,0,0,0,0,0,0,0,0,0,0,0,0,0,0,0,0,0,0,0,0,0,0,0,0,0,0,0,0,0,0,0,0,0,0,0,0,0,0,0,0.2443,0.2442,0,0.2414,0.2414,0.2414,0.2423,0.2424,0.2425,0.2425,0.2392,0.239,0.2389,0,0,0,0,0,0,0,0,0,0,0,0,0,0.2503,0.2501,0.2443,0.2442,0.2442,0.2414,0.2414,0.2413,0.2423,0.2424,0.2425,0.2426,0.2392,0.239,0.2389,0,0,0,0,0,0,0,0,0,0,0,0,0,0.2475,0.2501,0.2443,0.2444,0.2443,0.2414,0.2414,0.2413,0.2423,0.2424,0.2425,0.2426,0.2393,0.2391,0.2388,0.2355,0,0,0.2382,0.2381,0,0,0,0,0,0,0,0,0.2477,0.2473,0.2444,0.2444,0.2443,0.2423,0.2423,0.2394,0.2423,0.2431,0.2425,0.2426,0.2401,0.2398,0.2391,0.2354,0.2352,0.2381,0.238,0.2379,0.2378,0,0,0,0,0,0,0,0.2479,0.2474,0.2431,0.2443,0.2443,0.2444,0.2442,0.2417,0.2411,0.243,0.2431,0.2427,0.2401,0.2393,0.239,0.2352,0.2381,0.2379,0.2378,0.2377,0.2287,0.2286,0,0,0,0,0,0,0.2481,0.2476,0.2432,0.243,0.2463,0.2443,0.244,0.2429,0.2411,0.2409,0.2427,0.2428,0.2396,0.2393,0.2389,0.2349,0.2379,0.2377,0.2376,0.2288,0.2287,0.2285,0,0,0,0,0,0,0.2483,0.2477,0.2433,0.2453,0.2448,0.2441,0.2428,0.2428,0.2419,0.2409,0.2407,0.242,0.2397,0.2392,0.2364,0.2348,0.2376,0.2374,0.2289,0.2288,0.2286,0.2269,0,0,0,0,0,0,0.2484,0.2478,0.2466,0.2453,0.2447,0.241,0.2427,0.2426,0.2416,0.2417,0.2401,0.24,0.2397,0.2367,0.2362,0.2345,0.2372,0.2291,0.2288,0.2287,0.2271,0.2267,0.2264,0,0,0,0,0,0.2486,0.2461,0.2465,0.246,0.2432,0.2409,0.2405,0.2404,0.2415,0.2402,0.2395,0.24,0.2351,0.2364,0.2358,0.2341,0.2291,0.2289,0.2287,0.2273,0.2268,0.2264,0,0,0,0,0,0,0.247,0.2459,0.2464,0.2434,0.2422,0.2411,0.2394,0.2399,0.2383,0.2385,0.2383,0.2379,0.2351,0.2343,0.2358,0.2308,0.2323,0.2319,0.2314,0.2309,0.2306,0.2308,0.237,0,0,0,0,0,0.2463,0.2447,0.2438,0.2412,0.2406,0.2402,0.2391,0.2392,0.2379,0.2374,0.2365,0.2352,0.2334,0.2321,0.2304,0.2271,0.2267,0.2256,0.2252,0.2249,0.2245,0.2228,0.2222,0.2278,0.2278,0.2278,0,0,0.2448,0.244,0.243,0.2409,0.24,0.2382,0.2397,0.2377,0.2363,0.2371,0.2344,0.2337,0.2322,0.2292,0.2278,0.2284,0.223,0.2246,0.2244,0.2242,0.2225,0.2219,0.2215,0.2276,0.2276,0.2277,0,0,0.2412,0.2404,0.2382,0.2374,0.2361,0.2359,0.2353,0.2341,0.2338,0.2311,0.2317,0.23,0.2268,0.2258,0.2248,0.2209,0.2213,0.2204,0.2184,0.2167,0.2162,0.2158,0.2144,0.2139,0.22,0.22,0.22,0,0.2394,0.2368,0.237,0.235,0.234,0.2349,0.2326,0.2317,0.2298,0.2291,0.23,0.2261,0.2252,0.2219,0.221,0.2202,0.2195,0.2205,0.2163,0.2159,0.2156,0.2142,0.2137,0.2199,0.2199,0.22,0.22,0,0.2347,0.2329,0.2313,0.2297,0.2285,0.2264,0.2262,0.225,0.2252,0.2248,0.2222,0.2211,0.2192,0.2184,0.2185,0.2151,0.2156,0.2164,0.2178,0.2149,0.2136,0.2131,0.2198,0.2198,0.2198,0.2199,0,0,0.2297,0.2284,0.2278,0.2271,0.2259,0.2244,0.2223,0.2206,0.2196,0.2183,0.2165,0.2139,0.2147,0.2136,0.2136,0.2121,0.2091,0.2131,0.213,0.2123,0.2053,0.2046,0.204,0.2094,0.2093,0.2093,0.2054,0,0.2259,0.2223,0.2225,0.2192,0.2175,0.2183,0.2165,0.2155,0.2151,0.2136,0.2131,0.2113,0.2125,0.2118,0.2104,0.2098,0.2077,0.2101,0.2076,0.2075,0.2078,0.2034,0.2026,0.199,0.2049,0.2048,0.2048,0,0.2209,0.2197,0.2162,0.2153,0.2146,0.213,0.2114,0.21,0.2089,0.2087,0.2076,0.2079,0.2058,0.2074,0.2043,0.206,0.205,0.2046,0.2044,0.2041,0.2059,0.2028,0.1979,0.1973,0.204,0.204,0.2041,0,0.2175,0.215,0.2126,0.212,0.2109,0.2097,0.2092,0.2082,0.2072,0.2059,0.2052,0.2036,0.2026,0.2014,0.2012,0.2024,0.1981,0.1997,0.1978,0.1978,0.1967,0.1968,0.1915,0.1963,0.1963,0.1963,0.1963,0,0.2131,0.2109,0.2111,0.2096,0.2072,0.2074,0.205,0.2046,0.2037,0.2021,0.2027,0.2011,0.2011,0.1995,0.1993,0.1968,0.1964,0.1962,0.1961,0.196,0.1961,0.1953,0.1955,0.1962,0.1962,0.1962,0.1963,0,0.2088,0.2089,0.2063,0.2056,0.2053,0.2036,0.2029,0.2015,0.2013,0.1992,0.1987,0.1984,0.1965,0.1963,0.1941,0.194,0.191,0.1912,0.1914,0.1914,0.1895,0.1896,0.1834,0.1826,0.188,0.188,0.1879,0,0.206,0.2043,0.2035,0.2026,0.202,0.2004,0.1995,0.1997,0.1987,0.1974,0.1961,0.1944,0.193,0.19,0.1894,0.1878,0.1879,0.1859,0.1877,0.1877,0.1878,0.1879,0.1877,0.1855,0.1854,0.1854,0.1853,0,0.2009,0.201,0.1997,0.1984,0.1972,0.1962,0.1952,0.1943,0.1944,0.1932,0.1915,0.1904,0.1883,0.1865,0.1849,0.1843,0.1848,0.1848,0.1843,0.1841,0.1842,0.184,0.1903,0.1849,0.1849,0.185,0.185,0.185,0.1971,0.1957,0.195,0.1935,0.1928,0.1919,0.1906,0.1903,0.1889,0.1872,0.1875,0.1855,0.1845,0.1824,0.1817,0.1801,0.1808,0.18,0.1798,0.1795,0.1793,0.1846,0.1798,0.1798,0.1799,0.1799,0.1799,0,0.192,0.1916,0.1902,0.1889,0.1878,0.1886,0.1876,0.1865,0.1848,0.1839,0.1826,0.1806,0.1789,0.1784,0.1768,0.1756,0.1758,0.1751,0.1751,0.175,0.1789,0.1795,0.175,0.175,0.175,0.175,0.175,0.175,0.1891,0.1868,0.1869,0.1843,0.1839,0.1821,0.1815,0.1806,0.1799,0.1777,0.1764,0.1761,0.1754,0.1737,0.1722,0.1721,0.1714,0.1707,0.1706,0.1742,0.1747,0.1752,0.1757,0.1706,0.1706,0.1669,0.1668,0.1668]},{"header":{"parameterUnit":"m.s-1","parameterCategory":1,"la1":30.2991,"la2":30.254,"lo1":-89.0895,"lo2":-89.0444,"dy":0.0017,"dx":0.0017,"nx":28,"ny":28,"refTime":"2024-05-10T03:00:00:Z","depth":0,"parameterNumber":3,"parameterNumberName":"V-component_of_WINDS"},"data":[0,0,0,0,0,0,0,0,0,0,0,0,0,0,0,0,0,0,0,0,0,0,0,0,0,0,0,0,0,0,0,0,0,0,0,0,0,0,0,0,0,0,0,0,0,0,0,0,0,0,0,0,0,0,0,0,0,0,-5.9215,-5.9216,0,-5.9274,-5.9275,-5.9275,-5.9175,-5.9171,-5.9168,-5.9165,-5.9222,-5.9226,-5.9231,0,0,0,0,0,0,0,0,0,0,0,0,0,-5.9013,-5.9018,-5.9215,-5.9216,-5.9217,-5.9274,-5.9275,-5.9276,-5.9175,-5.9171,-5.9167,-5.9163,-5.922,-5.9226,-5.9231,0,0,0,0,0,0,0,0,0,0,0,0,0,-5.909,-5.9019,-5.9215,-5.9174,-5.9171,-5.9274,-5.9275,-5.9276,-5.9176,-5.9171,-5.9166,-5.9161,-5.9218,-5.9225,-5.9232,-5.9378,0,0,-5.9254,-5.9257,0,0,0,0,0,0,0,0,-5.9085,-5.9097,-5.9179,-5.9177,-5.9173,-5.9212,-5.9224,-5.931,-5.9177,-5.9174,-5.9165,-5.9159,-5.9222,-5.9229,-5.9251,-5.938,-5.9383,-5.9254,-5.9258,-5.9261,-5.9263,0,0,0,0,0,0,0,-5.908,-5.9094,-5.9238,-5.918,-5.9177,-5.9151,-5.9156,-5.924,-5.9226,-5.9174,-5.9167,-5.9175,-5.922,-5.9244,-5.9251,-5.9384,-5.9254,-5.926,-5.9265,-5.9267,-5.9636,-5.9641,0,0,0,0,0,0,-5.908,-5.909,-5.9236,-5.924,-5.9116,-5.9159,-5.9165,-5.9205,-5.9225,-5.9223,-5.918,-5.917,-5.9235,-5.9243,-5.9253,-5.9425,-5.9261,-5.9268,-5.9272,-5.963,-5.9637,-5.9643,0,0,0,0,0,0,-5.9076,-5.9094,-5.9234,-5.9163,-5.9179,-5.9168,-5.9214,-5.9209,-5.9233,-5.9229,-5.9226,-5.9207,-5.9231,-5.9243,-5.9348,-5.9426,-5.9271,-5.9278,-5.9624,-5.9632,-5.964,-5.9771,0,0,0,0,0,0,-5.9071,-5.9094,-5.9149,-5.9165,-5.9183,-5.9329,-5.9218,-5.9213,-5.9246,-5.9234,-5.9254,-5.9253,-5.9228,-5.9338,-5.9355,-5.9433,-5.9283,-5.9617,-5.9628,-5.9637,-5.976,-5.9783,-5.9803,0,0,0,0,0,-5.9064,-5.9183,-5.9153,-5.9171,-5.9253,-5.9334,-5.9344,-5.9314,-5.9252,-5.9308,-5.9306,-5.9252,-5.9415,-5.9349,-5.9368,-5.9449,-5.9612,-5.9624,-5.9637,-5.975,-5.9778,-5.9802,0,0,0,0,0,0,-5.9175,-5.9184,-5.9151,-5.9279,-5.9307,-5.9317,-5.9386,-5.9345,-5.939,-5.9377,-5.9337,-5.9342,-5.9455,-5.9462,-5.9389,-5.9591,-5.9503,-5.9519,-5.9583,-5.961,-5.9631,-5.9627,-5.9289,0,0,0,0,0,-5.9215,-5.9281,-5.9284,-5.9397,-5.9413,-5.9398,-5.9431,-5.9406,-5.9433,-5.9444,-5.9449,-5.9476,-5.9533,-5.9571,-5.9624,-5.976,-5.9763,-5.9825,-5.9847,-5.9864,-5.9879,-5.9953,-5.998,-5.9684,-5.9684,-5.9684,0,0,-5.9297,-5.931,-5.9354,-5.942,-5.9438,-5.9507,-5.9408,-5.9484,-5.9534,-5.9455,-5.9554,-5.9559,-5.9587,-5.9709,-5.9762,-5.9718,-5.9962,-5.988,-5.9894,-5.99,-5.9968,-5.9996,-6.0021,-5.9693,-5.9691,-5.969,0,0,-5.9481,-5.9498,-5.9594,-5.9615,-5.9645,-5.9634,-5.9657,-5.9674,-5.9675,-5.9774,-5.9716,-5.9775,-5.9874,-5.9896,-5.9921,-6.0115,-6.0068,-6.0133,-6.0246,-6.0318,-6.0341,-6.0361,-6.0431,-6.0457,-6.0148,-6.0148,-6.0149,0,-5.9579,-5.9681,-5.9648,-5.9729,-5.976,-5.9692,-5.9789,-5.981,-5.9856,-5.9878,-5.9828,-5.9952,-5.9965,-6.0092,-6.0139,-6.0161,-6.0186,-6.0131,-6.034,-6.0361,-6.0379,-6.0446,-6.0472,-6.0156,-6.0155,-6.0155,-6.0154,0,-5.98,-5.9872,-5.9945,-5.9993,-6.0031,-6.012,-6.01,-6.0143,-6.0114,-6.0109,-6.0211,-6.0225,-6.028,-6.0308,-6.028,-6.0431,-6.0402,-6.0347,-6.0257,-6.0416,-6.0478,-6.0503,-6.0168,-6.0165,-6.0162,-6.016,0,0,-6.0056,-6.0085,-6.0112,-6.0133,-6.0162,-6.0216,-6.0301,-6.0356,-6.0394,-6.0427,-6.0498,-6.0584,-6.0533,-6.0561,-6.0535,-6.0599,-6.0753,-6.0535,-6.0535,-6.0576,-6.092,-6.0962,-6.0992,-6.0721,-6.0726,-6.073,-6.0918,0,-6.024,-6.0389,-6.0362,-6.0506,-6.0572,-6.0509,-6.0583,-6.0609,-6.0606,-6.0661,-6.0656,-6.0719,-6.0647,-6.0664,-6.0723,-6.0721,-6.0821,-6.0707,-6.0786,-6.0789,-6.0782,-6.1024,-6.1068,-6.1246,-6.0942,-6.0946,-6.0949,0,-6.0475,-6.0519,-6.0671,-6.069,-6.0716,-6.0784,-6.0832,-6.0886,-6.0913,-6.0906,-6.0938,-6.0901,-6.0985,-6.0894,-6.101,-6.0933,-6.0963,-6.0967,-6.0973,-6.098,-6.0879,-6.1038,-6.1301,-6.1328,-6.0986,-6.0983,-6.0981,0,-6.0647,-6.0744,-6.0848,-6.0868,-6.0892,-6.0941,-6.0954,-6.0976,-6.1011,-6.1053,-6.1075,-6.1126,-6.1154,-6.1193,-6.117,-6.1106,-6.129,-6.1197,-6.1287,-6.1288,-6.1329,-6.1327,-6.1602,-6.1348,-6.1347,-6.1347,-6.1346,0,-6.0856,-6.0952,-6.0926,-6.099,-6.1095,-6.1063,-6.1167,-6.1171,-6.1192,-6.1255,-6.1203,-6.1263,-6.1229,-6.1286,-6.1268,-6.1367,-6.138,-6.1377,-6.1371,-6.1382,-6.1383,-6.1402,-6.1389,-6.1354,-6.1352,-6.1351,-6.135,0,-6.1067,-6.1054,-6.1162,-6.1178,-6.1184,-6.126,-6.1273,-6.1332,-6.1325,-6.1406,-6.1423,-6.1412,-6.1477,-6.1458,-6.1528,-6.1516,-6.1641,-6.1619,-6.1633,-6.1628,-6.1719,-6.1711,-6.2016,-6.2055,-6.1776,-6.1778,-6.1781,0,-6.1202,-6.1274,-6.1297,-6.1337,-6.1353,-6.1417,-6.1453,-6.1424,-6.1463,-6.15,-6.1555,-6.1615,-6.1662,-6.1769,-6.1767,-6.182,-6.1799,-6.1902,-6.1807,-6.1816,-6.1801,-6.1798,-6.1805,-6.1922,-6.1925,-6.1927,-6.193,0,-6.1442,-6.1432,-6.1487,-6.154,-6.1585,-6.1624,-6.1659,-6.1694,-6.1667,-6.1713,-6.178,-6.1817,-6.1889,-6.1949,-6.1998,-6.2009,-6.1966,-6.196,-6.1984,-6.1996,-6.2001,-6.2,-6.1686,-6.1953,-6.1951,-6.1949,-6.1948,-6.1947,-6.1619,-6.1681,-6.1708,-6.177,-6.1794,-6.1828,-6.1885,-6.1886,-6.1941,-6.1999,-6.1978,-6.2054,-6.2079,-6.214,-6.2158,-6.2217,-6.2177,-6.2212,-6.222,-6.2229,-6.2242,-6.1992,-6.2226,-6.2225,-6.2224,-6.2224,-6.2223,0,-6.1858,-6.1872,-6.193,-6.1982,-6.2031,-6.1987,-6.2023,-6.2067,-6.2136,-6.2163,-6.2211,-6.2288,-6.2347,-6.235,-6.2405,-6.2451,-6.2433,-6.2467,-6.2463,-6.2467,-6.2273,-6.2248,-6.2481,-6.2481,-6.2481,-6.2481,-6.2481,-6.2481,-6.1988,-6.2091,-6.2084,-6.2198,-6.2211,-6.2287,-6.2311,-6.2342,-6.2365,-6.2453,-6.2503,-6.2505,-6.2523,-6.2579,-6.2631,-6.263,-6.2653,-6.2695,-6.2687,-6.2506,-6.248,-6.2456,-6.2432,-6.27,-6.27,-6.2875,-6.2877,-6.2878]}]]